Hourly Data Report for June 28, 2021

FISHER BRANCH (AUT)
MANITOBA
Current Station Operator: ECCC - MSC

51°05'00.100" N
97°33'16.200" W
253.00 m
50309J6
71442
WSZ

Download Data

Hourly Data (June 2021)
Hourly Data Report for June 28, 2021
TIME
LST
Temp Definition
°C
Dew Point Definition
°C
Rel Hum Definition
%
Precip. Amount Definition
mm

Wind Dir Definition
10's deg

Wind Spd Definition
km/h
Visibility Definition
km
Stn Press Definition
kPa
Hmdx Definition


Wind Chill Definition


Weather Definition


00:00 15.8 13.6 87 0.0 34 11   98.74     LegendNANA
01:00 15.8 13.3 85 0.0 35 14   98.79     LegendNANA
02:00 14.7 12.3 85 0.0 36 13   98.83     LegendNANA
03:00 13.9 10.8 82 0.0 1 6   98.86     LegendNANA
04:00 11.6 10.2 91 0.0 33 9   98.89     LegendNANA
05:00 11.4 9.8 89 0.0 33 8   98.95     LegendNANA
06:00 13.3 10.7 84 0.0 35 8   99.02     LegendNANA
07:00 15.3 11.5 78 0.0 35 10   99.07     LegendNANA
08:00 17.0 11.5 70 0.0 35 13   99.11     LegendNANA
09:00 18.7 11.1 62 0.0 35 11   99.14     LegendNANA
10:00 19.7 10.4 55 0.0 1 12   99.14     LegendNANA
11:00 21.0 9.1 46 0.0 34 13   99.13     LegendNANA
12:00 21.9 8.3 42 0.0 35 12   99.11     LegendNANA
13:00 23.1 7.7 37 0.0 1 10   99.09     LegendNANA
14:00 24.0 7.6 35 0.0 3 8   99.05     LegendNANA
15:00 24.6 8.6 36 0.0 7 8   99.02 25   LegendNANA
16:00 25.0 8.3 35 0.0 29 8   98.97 26   LegendNANA
17:00 24.9 8.0 34 0.0 33 10   98.98 25   LegendNANA
18:00 24.8 7.6 33 0.0 32 8   98.94 25   LegendNANA
19:00 24.1 7.4 34 0.0 32 7   98.90     LegendNANA
20:00 20.5 11.0 55 0.0 31 4   98.91     LegendNANA
21:00 16.4 9.9 65 0.0 33 3   98.93     LegendNANA
22:00 13.3 9.6 78 0.0 8 2   98.95     LegendNANA
23:00 12.6 9.3 81 0.0 29 4   98.93     LegendNANA

Notes on Data Quality.

Legend

  • E = Estimated
  • M = Missing
  • NA = Not Available*
  • [empty] = Indicates an unobserved value
Date modified: